Pompano Beach, FL

11:28 PM EDT on September 22, 2017 (GMT -0400)
Pompano Beach

Weather History for KPMP - September, 2012

Change the Weather History Date:

Thursday, September 20, 2012

  Actual Average Record
Temperature  
Mean Temperature 80 °F -  
Max Temperature 86 °F 90 °F 95 °F (1987)
Min Temperature 75 °F 74 °F 65 °F (1977)
Cooling Degree Days 14    
Growing Degree Days 30 (Base 50)    
Moisture  
Dew Point 74 °F    
Average Humidity 82    
Maximum Humidity 94    
Minimum Humidity 69    
Precipitation  
Precipitation 0.00 in - - ()
Sea Level Pressure  
Sea Level Pressure 30.00 in    
Wind  
Wind Speed 7 mph (NE)    
Max Wind Speed 14 mph    
Max Gust Speed 20 mph    
Visibility 10 miles    
Events      
Averages and records for this station are not official NWS values.
T = Trace of Precipitation, MM = Missing Value Source: NWS Daily Summary

Daily Weather History Graph

Daily Weather History Graph

Search for Another Location

Airport or City:

Trip Planner

Search our weather history database for the weather conditions in past years. The results will help you decide how hot, cold, wet, or windy it might be!

Date:

Astronomy

Sep. 20, 2012 Rise Set
Actual Time 7:08 AM EDT 7:18 PM EDT
Civil Twilight 6:45 AM EDT 7:41 PM EDT
Nautical Twilight 6:18 AM EDT 8:08 PM EDT
Astronomical Twilight 5:51 AM EDT 8:35 PM EDT
Moon 11:51 AM EDT (9/20) 10:52 PM EDT (9/20)
Length of Visible Light 12h 56m
Length of Day
12h 10m
Waxing Crescent, 26% of the Moon is Illuminated
Sep 20
Waxing Crescent
Sep 22
First Quarter
Sep 29
Full
Oct 8
Last Quarter
Oct 15
New

Hourly Weather History & Observations

Time (EDT) Temp. Heat Index Dew Point Humidity Pressure Visibility Wind Dir Wind Speed Gust Speed Precip Events Conditions
12:53 AM 78.1 °F - 73.0 °F 84% 30.05 in 10.0 mi NNE 12.7 mph - N/A   Mostly Cloudy
1:53 AM 78.1 °F - 71.1 °F 79% 30.03 in 10.0 mi North 4.6 mph - N/A   Clear
2:53 AM 75.9 °F - 72.0 °F 87% 30.00 in 10.0 mi Calm Calm - N/A   Clear
3:53 AM 79.0 °F - 73.9 °F 84% 29.98 in 10.0 mi ESE 5.8 mph - N/A   Clear
4:53 AM 79.0 °F - 75.0 °F 88% 29.97 in 10.0 mi Calm Calm - N/A   Clear
5:53 AM 75.9 °F - 73.9 °F 94% 29.98 in 10.0 mi NNW 8.1 mph - N/A   Scattered Clouds
6:08 AM 75.2 °F - 73.4 °F 94% 29.98 in 10.0 mi NNW 5.8 mph - N/A   Mostly Cloudy
6:20 AM 75.2 °F - 73.4 °F 94% 29.98 in 10.0 mi North 5.8 mph - N/A   Scattered Clouds
6:53 AM 75.0 °F - 73.0 °F 94% 29.99 in 10.0 mi North 5.8 mph - N/A   Partly Cloudy
7:53 AM 75.9 °F - 73.0 °F 91% 30.01 in 10.0 mi NNW 3.5 mph - N/A   Partly Cloudy
9:53 AM 82.9 °F 90.8 °F 75.9 °F 79% 30.03 in 10.0 mi ENE 8.1 mph - N/A   Partly Cloudy
10:53 AM 82.9 °F 90.8 °F 75.9 °F 79% 30.04 in 10.0 mi NE 8.1 mph - N/A   Scattered Clouds
11:53 AM 84.9 °F 92.1 °F 73.9 °F 69% 30.02 in 10.0 mi ENE 11.5 mph - N/A   Scattered Clouds
12:53 PM 84.9 °F 93.3 °F 75.0 °F 72% 30.02 in 10.0 mi NE 11.5 mph - N/A   Mostly Cloudy
1:53 PM 84.9 °F 93.3 °F 75.0 °F 72% 30.00 in 10.0 mi East 10.4 mph - N/A   Mostly Cloudy
2:53 PM 84.9 °F 93.3 °F 75.0 °F 72% 29.98 in 10.0 mi ENE 12.7 mph - N/A   Mostly Cloudy
3:53 PM 84.0 °F 91.9 °F 75.0 °F 74% 29.95 in 10.0 mi NE 13.8 mph 19.6 mph N/A   Mostly Cloudy
4:53 PM 84.0 °F 91.2 °F 73.9 °F 72% 29.95 in 10.0 mi ENE 10.4 mph - N/A   Mostly Cloudy
5:53 PM 82.0 °F 88.6 °F 75.0 °F 79% 29.96 in 10.0 mi ENE 10.4 mph - N/A   Mostly Cloudy
6:53 PM 81.0 °F 86.2 °F 73.9 °F 79% 29.96 in 10.0 mi NE 9.2 mph - N/A   Partly Cloudy
7:53 PM 81.0 °F 86.7 °F 75.0 °F 82% 29.99 in 10.0 mi NE 5.8 mph - N/A   Partly Cloudy
8:53 PM 81.0 °F 86.7 °F 75.0 °F 82% 30.00 in 10.0 mi ENE 5.8 mph - N/A   Clear
9:53 PM 80.1 °F 84.2 °F 73.0 °F 79% 30.01 in 10.0 mi ENE 4.6 mph - N/A   Clear
10:53 PM 80.1 °F 84.5 °F 73.9 °F 81% 30.01 in 10.0 mi NNE 3.5 mph - N/A   Clear
11:53 PM 80.1 °F 84.5 °F 73.9 °F 81% 29.99 in 10.0 mi ENE 3.5 mph - N/A   Clear